Weather Roundup
Issued by NWS

Home | Current Version | Previous Version | Text Only | Print | Product List | Glossary On
Versions: 1 2 3 4 5 6 7 8 9 10 11 12 13 14 15 16 17 18 19 20 21 22 23 24 25 26 27 28 29 30 31 32 33 34 35 36 37 38 39 40 41 42 43 44 45 46 47 48 49 50
000
NZUS93 KARX 261610
HRRWXR

CURRENT HOURLY OBSERVATIONS ACROSS
MUCH OF THE UPPER MISSISSIPPI VALLEY
NATIONAL WEATHER SERVICE LA CROSSE WI
1100 AM CDT TUE SEP 26 2017


...SOUTHEAST MINNESOTA...


CITY           SKY/WX    TMP DP  RH WIND       PRES   REMARKS
ROCHESTER      CLOUDY    60  58  92 W9        30.00R
ROCHESTER/MAYO CLOUDY    60  59  99 W9        29.99R
WINONA         CLOUDY    70  64  83 NW10      29.94R
AUSTIN         CLOUDY    59  55  88 W13       30.00R
ALBERT LEA     CLOUDY    59  59 100 W8        30.02R
DODGE CENTER   CLOUDY    57  55  94 W14       29.99S
PRESTON        CLOUDY    64  60  88 W10       29.98R
OWATONNA       CLOUDY    59  55  88 W14       30.01R
FARIBAULT      CLOUDY    59  57  94 W14       30.00R
$$

...ELSEWHERE IN MINNESOTA...


CITY           SKY/WX    TMP DP  RH WIND       PRES   REMARKS
MINNEAPOLIS    CLOUDY    60  57  89 W13       29.96R
INTNL FALLS    CLOUDY    51  47  86 NE5       30.00R
DULUTH         CLOUDY    53  53 100 E9        29.92S
RED WING       CLOUDY    63  55  77 W12       29.95R
REDWOOD FALLS  CLOUDY    56  52  86 NW13G22   30.05R
MANKATO        CLOUDY    58  55  90 W14       30.03R
WORTHINGTON    CLOUDY    55  50  83 NW10      30.09R
FAIRMONT       CLOUDY    57  53  86 NW13G21   30.06R
$$

...SOUTHWEST WISCONSIN...


CITY           SKY/WX    TMP DP  RH WIND       PRES   REMARKS
LA CROSSE      CLOUDY    71  66  84 SW8       29.94R
PRAIRIE DU CHI LGT RAIN  68  65  90 SW3       29.96R
BOSCOBEL       CLOUDY    72  68  87 W6        29.96R
LONE ROCK      LGT RAIN  70  68  93 CALM      29.94F
PLATTEVILLE    CLOUDY    73  67  81 SW5       29.97S
FORT MC COY    LGT RAIN  64  63  94 CALM      29.95R
CAMP DOUGLAS   CLOUDY    70  68  94 CALM      29.95R
MAUSTON-NEW LI CLOUDY    70  67  90 W6        29.94R FOG
VIROQUA        PTSUNNY   67  67 100 W8        29.97R
WIS DELLS      CLOUDY    70  64  83 SW5       29.95S
$$

...ELSEWHERE IN WISCONSIN...


CITY           SKY/WX    TMP DP  RH WIND       PRES   REMARKS
MILWAUKEE      LGT RAIN  81  62  52 SW10      29.94R
MADISON        CLOUDY    73  64  73 VRB3      29.94S
GREEN BAY      LGT RAIN  71  69  93 CALM      29.93R
EAU CLAIRE     RAIN      63  62  97 W10       29.93R FOG
BLACK RVR FLS  CLOUDY    70  68  95 SW8       29.93S
MEDFORD        CLOUDY    66  63  91 SW8       29.94R
WAUSAU         CLOUDY    68  65  90 S7        29.92S
WIS RAPIDS     CLOUDY    70  68  93 SW6       29.95R
MARSHFIELD     CLOUDY    68  63  84 W8        29.94R
RICE LAKE      DRIZZLE   60  60  98 CALM      29.94R
$$

...NORTHEAST IOWA...


CITY           SKY/WX    TMP DP  RH WIND       PRES   REMARKS
WATERLOO       LGT RAIN  66  65  96 W7        29.98R FOG
DUBUQUE        PTSUNNY   76  67  73 VRB6      29.97S
DECORAH        CLOUDY    66  66 100 VRB5      29.97R
MASON CITY     CLOUDY    60  56  86 NW14      30.04R
CHARLES CITY   CLOUDY    63  63 100 W12       30.01R
OELWEIN        CLOUDY    68  68 100 W6        29.99R
$$

...ELSEWHERE IN IOWA...


CITY           SKY/WX    TMP DP  RH WIND       PRES   REMARKS
DES MOINES     CLOUDY    64  61  90 NW13      30.02R
IOWA CITY      NOT AVBL
FORT DODGE     CLOUDY    58  55  90 NW13      30.06R
MARSHALLTOWN   CLOUDY    63  63 100 W15       30.00R
CEDAR RAPIDS   PTSUNNY   71  66  84 W15       29.98R
$$

...NORTHERN ILLINOIS...


CITY           SKY/WX    TMP DP  RH WIND       PRES   REMARKS
CHICAGO-OHARE  MOSUNNY   86  63  45 S7        29.95S
CHICAGO-MIDWAY MOSUNNY   88  62  41 SW10      29.96S
MOLINE         CLOUDY    79  67  66 SW8       29.95R
ROCKFORD       MOSUNNY   83  63  50 SW13      29.96S
PEORIA         MOSUNNY   83  64  52 SW9       29.98S
$$

NOTE: "FAIR" INDICATES FEW OR NO CLOUDS BELOW 12,000 FEET WITH NO
SIGNIFICANT WEATHER AND/OR OBSTRUCTIONS TO VISIBILITY. WIND
SPEEDS ARE IN MILES-PER-HOUR.




USA.gov is the U.S. government's official web portal to all federal, state and local government web resources and services.